Weather observations for the past three days for
Marion / Wytheville
| Date | Time (edt) | Wind (kph) | Vis. (km) | Weather | Sky Cond. | Temperature (ºC) | Relative Humidity | Wind Chill (°C) | Heat Index (°C) | Pressure | Precipitation (cm) | ||||||
|---|---|---|---|---|---|---|---|---|---|---|---|---|---|---|---|---|---|
| Air | Dwpt | 6 hour | altimeter (cm) | sea level (mb) | 1 hr | 3 hr | 6 hr | ||||||||||
| Max. | Min. | ||||||||||||||||
| 08 | 16:55 | W 15 | 16.09 | Fair | CLR | 17.8 | 0.3 | 31% | 76.1 | 0.0 | |||||||
| 08 | 16:35 | W 19 G 26 | 16.09 | Fair | CLR | 17.7 | -0.3 | 30% | 76.12 | 0.0 | |||||||
| 08 | 16:15 | W 7 | 16.09 | Fair | CLR | 17.4 | -2.8 | 25% | 76.15 | 0.0 | |||||||
| 08 | 15:55 | W 9 | 16.09 | Fair | CLR | 17.6 | -1.4 | 28% | 76.15 | 0.0 | |||||||
| 08 | 15:35 | SW 6 | 16.09 | Fair | CLR | 17.7 | -2 | 26% | 76.17 | 0.0 | |||||||
| 08 | 15:15 | W 15 | 16.09 | Fair | CLR | 17.6 | -3.2 | 24% | 76.2 | 0.0 | |||||||
| 08 | 14:55 | W 17 | 16.09 | Fair | CLR | 17.3 | -4.5 | 22% | 76.23 | 0.0 | |||||||
| 08 | 14:35 | SW 6 | 16.09 | Fair | CLR | 17 | -4.6 | 23% | 76.23 | 0.0 | |||||||
| 08 | 14:15 | Calm | 16.09 | Fair | CLR | 16.3 | -3.7 | 25% | 76.25 | 0.0 | |||||||
| 08 | 13:55 | NW 11 | 16.09 | Fair | CLR | 16 | -3.6 | 16.3 | 3.5 | 26% | 76.28 | 0.0 | |||||
| 08 | 13:35 | W 9 | 16.09 | Fair | CLR | 15.7 | -1.2 | 32% | 76.3 | 0.0 | |||||||
| 08 | 13:15 | W 7 | 16.09 | Fair | CLR | 15.2 | -2.8 | 29% | 76.33 | 0.0 | |||||||
| 08 | 12:55 | N 7 | 16.09 | Fair | CLR | 15.2 | -2.3 | 30% | 76.35 | 0.0 | |||||||
| 08 | 12:35 | Calm | 16.09 | Fair | CLR | 14.7 | -2.2 | 31% | 76.38 | 0.0 | |||||||
| 08 | 12:15 | W 9 | 16.09 | Fair | CLR | 14.3 | -2 | 33% | 76.4 | 0.0 | |||||||
| 08 | 11:55 | W 7 | 16.09 | Fair | CLR | 14.2 | -1.3 | 35% | 76.43 | 0.0 | |||||||
| 08 | 11:35 | W 7 | 16.09 | Fair | CLR | 13.7 | -1 | 37% | 76.43 | 0.0 | |||||||
| 08 | 11:15 | SE 6 | 16.09 | Fair | CLR | 13 | -2.2 | 35% | 76.43 | 0.0 | |||||||
| 08 | 10:55 | S 6 | 16.09 | Fair | CLR | 12.8 | -0.5 | 40% | 76.43 | 0.0 | |||||||
| 08 | 10:35 | SW 7 | 16.09 | Fair | CLR | 12.3 | -0.1 | 43% | 76.43 | 0.0 | |||||||
| 08 | 10:15 | S 6 | 16.09 | Fair | CLR | 11.5 | -0.5 | 44% | 76.43 | 0.0 | |||||||
| 08 | 09:55 | W 7 | 16.09 | Fair | CLR | 11.3 | 0.7 | 48% | 76.43 | 0.0 | |||||||
| 08 | 09:35 | SW 9 | 16.09 | Fair | CLR | 10.4 | -0.2 | 48% | 76.43 | 0.0 | |||||||
| 08 | 09:15 | W 6 | 16.09 | Fair | CLR | 9.4 | 2.7 | 63% | 76.4 | 0.0 | |||||||
| 08 | 08:55 | W 7 | 16.09 | Fair | CLR | 7.7 | 5.5 | 86% | 7 | 76.4 | 0.0 | ||||||
| 08 | 08:35 | W 6 | 16.09 | Fair | CLR | 6.3 | 5 | 92% | 76.43 | 0.0 | |||||||
| 08 | 08:15 | Calm | 16.09 | Fair | CLR | 4.4 | 3.2 | 92% | 76.43 | 0.0 | |||||||
| 08 | 07:55 | W 6 | 16.09 | Fair | CLR | 3.4 | 2.2 | 3.9 | 0.1 | 92% | 76.4 | 0.0 | |||||
| 08 | 07:35 | Calm | 16.09 | Fair | CLR | 1.4 | 0.2 | 92% | 76.38 | 0.0 | |||||||
| 08 | 07:15 | W 6 | 11.27 | Fair | CLR | 1.2 | 0 | 92% | 76.38 | 0.0 | |||||||
| 08 | 06:55 | Calm | 16.09 | Fair | CLR | 0.4 | -0.5 | 94% | 76.38 | 0.0 | |||||||
| 08 | 06:35 | Calm | 16.09 | Fair | CLR | 0.4 | -0.5 | 94% | 76.35 | 0.0 | |||||||
| 08 | 06:15 | Calm | 11.27 | Fair | CLR | 0.5 | -0.3 | 94% | 76.35 | 0.0 | |||||||
| 08 | 05:55 | Calm | 11.27 | Partly Cloudy | SCT002 | 0.7 | -0.2 | 94% | 76.35 | 0.0 | |||||||
| 08 | 05:35 | Calm | 2.82 | Fog/Mist | NULL | 0.6 | -0.3 | 94% | 76.33 | 0.0 | |||||||
| 08 | 05:15 | Calm | 2.82 | Fog/Mist | NULL | 1 | 0 | 93% | 76.35 | 0.0 | |||||||
| 08 | 04:55 | Calm | 0.80 | Fog | OVC001 | 0.9 | -0.1 | 93% | 76.33 | 0.0 | |||||||
| 08 | 04:35 | Calm | 0.80 | Fog | OVC003 | 0.8 | -0.1 | 94% | 76.33 | 0.0 | |||||||
| 08 | 04:15 | Calm | 2.82 | Fog/Mist | BKN003 | 1.3 | 0.1 | 92% | 76.33 | 0.0 | |||||||
| 08 | 03:55 | Calm | 0.80 | Fog | OVC003 | 1.2 | 0.1 | 92% | 76.33 | 0.0 | |||||||
| 08 | 03:35 | Calm | 0.80 | Fog | OVC003 | 1.6 | 0.4 | 92% | 76.3 | 0.0 | |||||||
| 08 | 03:15 | Calm | 1.61 | Fog/Mist | BKN003 | 2.4 | 1.2 | 92% | 76.3 | 0.0 | |||||||
| 08 | 02:55 | Calm | 4.02 | Fog/Mist | SCT001 | 2.7 | 1.5 | 92% | 76.28 | 0.0 | |||||||
| 08 | 02:35 | Calm | 1.21 | Fog/Mist | OVC001 | 2.7 | 1.6 | 93% | 76.3 | 0.0 | |||||||
| 08 | 02:15 | Calm | 0.40 | Fog | NULL | 3.3 | 2.1 | 92% | 76.28 | 0.0 | |||||||
| 08 | 01:55 | Calm | 0.40 | Fog | NULL | 3.7 | 2.5 | 10.8 | 3.7 | 92% | 76.3 | 0.0 | |||||
| 08 | 01:35 | Calm | 0.40 | Fog | NULL | 4.1 | 2.9 | 92% | 76.3 | 0.0 | |||||||
| 08 | 01:15 | Calm | 0.40 | Fog | NULL | 4.8 | 3.6 | 92% | 76.3 | 0.0 | |||||||
| 08 | 00:55 | Calm | 8.05 | Fog/Mist | SCT001 BKN050 | 5 | 3.8 | 92% | 76.28 | 0.0 | |||||||
| 08 | 00:35 | Calm | 11.27 | Partly Cloudy | SCT050 | 5.4 | 4.1 | 91% | 76.25 | 0.0 | |||||||
| 08 | 00:15 | Calm | 16.09 | Overcast | OVC050 | 5.4 | 4.1 | 91% | 76.25 | 0.0 | |||||||
| 07 | 23:55 | Calm | 16.09 | Mostly Cloudy | BKN050 | 5.5 | 4.3 | 92% | 76.25 | 0.0 | |||||||
| 07 | 23:35 | Calm | 16.09 | Partly Cloudy | SCT005 SCT050 | 5.5 | 4.3 | 92% | 76.25 | 0.0 | |||||||
| 07 | 23:15 | Calm | 16.09 | Fair | CLR | 5.7 | 4.4 | 91% | 76.23 | 0.0 | |||||||
| 07 | 22:55 | Calm | 16.09 | Fair | CLR | 5.9 | 4.6 | 91% | 76.23 | 0.0 | |||||||
| 07 | 22:35 | Calm | 16.09 | Fair | CLR | 5.9 | 4.6 | 91% | 76.2 | 0.0 | |||||||
| 07 | 22:15 | Calm | 16.09 | Fair | CLR | 6.4 | 5 | 91% | 76.2 | 0.0 | |||||||
| 07 | 21:55 | Calm | 16.09 | Partly Cloudy | SCT050 | 7 | 5 | 87% | 76.17 | 0.0 | |||||||
| 07 | 21:35 | Calm | 16.09 | Fair | CLR | 6.9 | 5.3 | 90% | 76.15 | 0.0 | |||||||
| 07 | 21:15 | Calm | 16.09 | Fair | CLR | 7.7 | 4.6 | 81% | 76.12 | 0.0 | |||||||
| 07 | 20:55 | Calm | 16.09 | Fair | CLR | 8.5 | 4.4 | 76% | 76.1 | 0.0 | |||||||
| 07 | 20:35 | Calm | 16.09 | Fair | CLR | 9.1 | 4.1 | 71% | 76.1 | 0.0 | |||||||
| 07 | 20:15 | SW 7 | 16.09 | Partly Cloudy | SCT043 SCT049 | 9.7 | 3.2 | 64% | 9 | 76.1 | 0.0 | ||||||
| 07 | 19:55 | W 13 | 16.09 | Mostly Cloudy | SCT043 BKN049 | 10.8 | 3.2 | 12.2 | 9.5 | 60% | 76.1 | 0.0 | 0.03 | ||||
| 07 | 19:35 | W 13 G 26 | 16.09 | Mostly Cloudy | SCT039 BKN047 | 11.3 | 3.3 | 58% | 76.1 | 0.0 | |||||||
| 07 | 19:15 | W 11 | 16.09 | Mostly Cloudy | SCT035 BKN047 | 11.2 | 4.1 | 62% | 76.1 | 0.0 | |||||||
| 07 | 18:55 | W 13 | 16.09 | Mostly Cloudy | SCT035 BKN047 | 11.7 | 4.1 | 60% | 76.07 | 0.0 | |||||||
| 07 | 18:35 | W 19 G 30 | 16.09 | Mostly Cloudy | BKN045 | 10.9 | 3.8 | 62% | 76.07 | 0.0 | |||||||
| 07 | 18:15 | W 13 | 16.09 | Overcast | OVC041 | 11 | 4.2 | 63% | 76.05 | 0.0 | |||||||
| 07 | 17:55 | W 20 G 31 | 16.09 | Mostly Cloudy | BKN041 | 11 | 4 | 62% | 76.05 | 0.0 | |||||||
| 07 | 17:35 | W 17 G 31 | 16.09 | Partly Cloudy | SCT027 SCT037 | 12.2 | 4.7 | 60% | 76.02 | 0.0 | |||||||
| 07 | 17:15 | W 11 | 16.09 | Mostly Cloudy | SCT020 SCT027 BKN037 | 11.6 | 6.2 | 70% | 76.02 | 0.0 | |||||||
| 07 | 16:15 | W 9 | 16.09 | Overcast | OVC018 | 9.8 | 6.1 | 78% | 9 | 76.02 | 0.0 | ||||||
| 07 | 15:55 | W 11 | 16.09 | Overcast | OVC016 | 10 | 6.3 | 78% | 9 | 76.02 | 0.0 | ||||||
| 07 | 15:35 | NW 11 | 16.09 | Overcast | OVC016 | 9.6 | 6.3 | 80% | 8 | 76.02 | 0.0 | ||||||
| 07 | 15:15 | W 9 | 16.09 | Overcast | BKN016 OVC022 | 9.6 | 6.3 | 80% | 9 | 76.05 | 0.0 | ||||||
| 07 | 14:55 | NW 9 | 16.09 | Overcast | OVC020 | 9.8 | 6.4 | 80% | 9 | 76.05 | 0.0 | 0.03 | |||||
| 07 | 14:35 | W 13 | 16.09 | Overcast | OVC020 | 9.6 | 6.5 | 81% | 8 | 76.05 | 0.0 | 0.03 | |||||
| 07 | 14:15 | W 15 | 16.09 | Overcast | OVC018 | 9.8 | 6.7 | 81% | 8 | 76.02 | 0.0 | ||||||
| 07 | 13:55 | W 15 | 16.09 | Overcast | OVC016 | 10.6 | 7.7 | 10.8 | 9.3 | 82% | 76.02 | 0.0 | |||||
| 07 | 13:35 | W 20 G 26 | 16.09 | Overcast | OVC012 | 10.7 | 7.8 | 82% | 76.02 | 0.0 | |||||||
| 07 | 13:15 | NW 15 | 16.09 | Light Drizzle | OVC010 | 10.3 | 8.4 | 88% | 76.02 | 0.0 | |||||||
| 07 | 12:55 | NW 13 | 16.09 | Overcast | OVC008 | 10.3 | 8.8 | 91% | 76.02 | 0.0 | |||||||
| 07 | 12:35 | NW 11 | 16.09 | Overcast | OVC008 | 10.6 | 9.1 | 91% | 76.02 | 0.0 | |||||||
| 07 | 12:15 | NW 11 | 16.09 | Overcast | OVC008 | 10.1 | 8.8 | 92% | 76.02 | 0.0 | |||||||
| 07 | 11:55 | W 7 | 16.09 | Overcast | BKN008 BKN012 OVC017 | 10 | 8.7 | 92% | 9 | 76.02 | 0.0 | ||||||
| 07 | 11:35 | W 7 | 11.27 | Overcast | SCT010 OVC017 | 9.9 | 8.6 | 92% | 9 | 76.02 | 0.0 | ||||||
| 07 | 11:15 | NW 6 | 8.05 | Drizzle | BKN008 OVC017 | 9.4 | 8.1 | 92% | 76.02 | 0.0 | |||||||
| 07 | 10:55 | W 11 | 11.27 | Light Rain | OVC008 | 9.9 | 8.6 | 92% | 9 | 76.05 | 0.0 | ||||||
| 07 | 10:35 | NW 9 | 16.09 | Overcast | OVC008 | 10.7 | 9.4 | 92% | 76.02 | 0.0 | |||||||
| 07 | 10:15 | NW 9 | 16.09 | Overcast | OVC008 | 10.5 | 9.2 | 92% | 76.02 | 0.0 | |||||||
| 07 | 09:55 | W 7 | 16.09 | Overcast | OVC008 | 10.6 | 9.3 | 92% | 76.02 | 0.0 | |||||||
| 07 | 09:35 | W 13 | 16.09 | Overcast | BKN008 OVC016 | 10.6 | 9.3 | 92% | 76.02 | 0.0 | |||||||
| 07 | 09:15 | Calm | 11.27 | Overcast | BKN008 OVC016 | 10.5 | 9.2 | 92% | 76.02 | 0.0 | |||||||
| 07 | 08:55 | W 11 | 16.09 | Overcast | SCT008 OVC016 | 10.5 | 9.1 | 91% | 76.02 | 0.0 | |||||||
| 07 | 08:35 | NW 6 | 16.09 | Overcast | OVC016 | 10.6 | 9.3 | 92% | 76.02 | 0.0 | |||||||
| 07 | 08:15 | SW 6 | 16.09 | Overcast | SCT008 OVC016 | 10.5 | 9.2 | 92% | 76.05 | 0.0 | |||||||
| 07 | 07:55 | Calm | 16.09 | Overcast | OVC016 | 10.4 | 9.1 | 14.8 | 10.3 | 92% | 76.05 | 0.0 | 0.08 | ||||
| 07 | 07:35 | W 9 | 16.09 | Light Drizzle | OVC014 | 10.3 | 9 | 92% | 76.02 | 0.0 | |||||||
| 07 | 07:15 | W 7 | 16.09 | Overcast | OVC014 | 10.7 | 9.5 | 92% | 76 | 0.0 | |||||||
| 07 | 06:55 | W 6 | 16.09 | Overcast | OVC014 | 10.8 | 9.5 | 92% | 76 | 0.0 | |||||||
| 07 | 06:35 | W 11 | 16.09 | Rain | OVC014 | 11 | 9.6 | 91% | 76.02 | 0.0 | |||||||
| 07 | 06:15 | Calm | 16.09 | Overcast | OVC014 | 10.9 | 9.5 | 91% | 75.97 | 0.0 | |||||||
| 07 | 05:55 | Calm | 16.09 | Overcast | OVC012 | 11.1 | 9.8 | 92% | 75.97 | 0.0 | |||||||
| 07 | 05:35 | Calm | 16.09 | Overcast | OVC012 | 11.3 | 10 | 92% | 75.97 | 0.0 | |||||||
| 07 | 05:15 | NW 7 | 16.09 | Overcast | OVC010 | 11.6 | 10.3 | 92% | 76.02 | 0.0 | |||||||
| 07 | 04:55 | NW 11 | 16.09 | Overcast | OVC010 | 12 | 10.6 | 91% | 75.97 | 0.0 | 0.08 | ||||||
| 07 | 04:35 | Calm | 16.09 | Overcast | BKN012 OVC017 | 12.3 | 11 | 92% | 75.97 | 0.0 | |||||||
| 07 | 04:15 | Calm | 16.09 | Overcast | SCT010 OVC019 | 12.5 | 11.2 | 92% | 75.95 | 0.0 | |||||||
| 07 | 03:55 | Calm | 16.09 | Light Rain | BKN008 BKN021 OVC039 | 12.5 | 11.2 | 92% | 75.97 | 0.0 | |||||||
| 07 | 03:35 | Calm | 16.09 | Overcast | OVC008 | 12.6 | 11.3 | 92% | 75.97 | 0.0 | |||||||
| 07 | 03:15 | N 7 | 16.09 | Overcast | BKN008 OVC017 | 12.9 | 11.6 | 92% | 76 | 0.0 | |||||||
| 07 | 02:55 | W 9 | 16.09 | Rain | SCT008 BKN015 OVC024 | 13.8 | 12.5 | 92% | 75.97 | 0.0 | 0.08 | ||||||
| 07 | 02:35 | W 15 | 11.27 | Heavy Rain | BKN006 OVC014 | 14.7 | 13.4 | 92% | 75.95 | 0.0 | 0.03 | ||||||
| 07 | 02:15 | W 17 | 16.09 | Overcast | SCT006 OVC014 | 14.7 | 13.5 | 93% | 75.97 | 0.0 | |||||||
| 07 | 01:55 | W 7 | 16.09 | Overcast | BKN006 BKN009 OVC016 | 14.8 | 13.5 | 17.3 | 13.7 | 92% | 76 | 0.0 | 0.48 | ||||
| 07 | 01:35 | SW 9 | 16.09 | Overcast | BKN006 OVC009 | 14.7 | 13.5 | 93% | 75.97 | 0.0 | |||||||
| 07 | 01:15 | SW 15 | 16.09 | Overcast | OVC006 | 14.8 | 13.5 | 92% | 76.02 | 0.0 | |||||||
| 07 | 00:55 | W 15 | 16.09 | Overcast | OVC006 | 14.7 | 13.5 | 93% | 76.07 | 0.0 | |||||||
| 07 | 00:35 | W 17 G 26 | 16.09 | Overcast | OVC006 | 14.6 | 13.3 | 92% | 76.07 | 0.0 | |||||||
| 07 | 00:15 | W 9 | 16.09 | Light Drizzle | BKN008 BKN012 OVC070 | 14.5 | 13.1 | 91% | 76.05 | 0.0 | |||||||
| 06 | 23:55 | Calm | 16.09 | Overcast | OVC060 | 13.7 | 12.5 | 93% | 76.02 | 0.0 | 0.03 | ||||||
| 06 | 23:35 | W 6 | 16.09 | Overcast | OVC060 | 14 | 12.6 | 91% | 76.07 | 0.0 | 0.03 | ||||||
| 06 | 23:15 | SW 6 | 16.09 | Overcast | SCT010 OVC050 | 14.2 | 12.9 | 92% | 76.07 | 0.0 | |||||||
| 06 | 22:55 | W 15 | 11.27 | Light Rain | BKN006 BKN011 OVC048 | 14.8 | 13.4 | 91% | 76.07 | 0.0 | 0.18 | 0.46 | |||||
| 06 | 22:35 | W 19 G 33 | 16.09 | Light Rain | OVC006 | 15.5 | 14.1 | 91% | 76.15 | 0.0 | 0.08 | ||||||
| 06 | 22:15 | W 24 G 37 | 11.27 | Rain | OVC008 | 15.6 | 14.3 | 92% | 76.12 | 0.0 | 0.03 | ||||||
| 06 | 21:55 | SW 17 G 30 | 16.09 | Light Rain | BKN010 BKN013 OVC018 | 15.8 | 14.5 | 92% | 76.1 | 0.0 | 0.28 | ||||||
| 06 | 21:35 | W 15 | 4.83 | Heavy Rain | OVC012 | 15.7 | 14.3 | 91% | 76.07 | 0.0 | 0.25 | ||||||
| 06 | 21:15 | W 15 | 11.27 | Rain | OVC015 | 16.3 | 15 | 92% | 76.07 | 0.0 | 0.03 | ||||||
| 06 | 20:55 | W 11 | 16.09 | Overcast | OVC018 | 17 | 15.2 | 89% | 76.05 | 0.0 | |||||||
| 06 | 20:35 | W 9 | 16.09 | Light Drizzle | BKN018 OVC022 | 17 | 15.1 | 89% | 76.02 | 0.0 | |||||||
| 06 | 20:15 | SW 9 | 16.09 | Overcast | OVC018 | 17.2 | 15.2 | 88% | 76.02 | 0.0 | |||||||
| 06 | 19:55 | SW 6 | 16.09 | Overcast | BKN018 OVC036 | 17.3 | 15.1 | 18.7 | 16.5 | 87% | 76 | 0.0 | |||||
| 06 | 19:35 | W 11 | 16.09 | Overcast | OVC018 | 17.5 | 15.1 | 86% | 76.02 | 0.0 | |||||||
| 06 | 19:15 | W 13 | 16.09 | Overcast | BKN020 OVC039 | 17.6 | 15 | 85% | 76.02 | 0.0 | |||||||
| 06 | 18:55 | W 11 | 16.09 | Overcast | BKN018 BKN024 OVC034 | 17.7 | 15 | 84% | 76.02 | 0.0 | |||||||
| 06 | 18:35 | SW 15 | 16.09 | Overcast | OVC016 | 17.7 | 15 | 84% | 76.02 | 0.0 | |||||||
| 06 | 18:15 | W 15 G 30 | 16.09 | Overcast | BKN016 OVC023 | 18.1 | 15.2 | 83% | 76.02 | 0.0 | |||||||
| 06 | 17:55 | W 20 G 31 | 16.09 | Overcast | BKN016 BKN022 OVC049 | 17.8 | 15.1 | 84% | 76.07 | 0.0 | |||||||
| 06 | 17:35 | W 20 G 31 | 16.09 | Overcast | BKN018 OVC023 | 17.8 | 15.1 | 84% | 76.05 | 0.0 | |||||||
| 06 | 17:15 | W 17 G 35 | 16.09 | Overcast | BKN018 BKN025 OVC038 | 17.6 | 14.8 | 84% | 76.02 | 0.0 | |||||||
| 06 | 16:55 | W 19 G 39 | 16.09 | Overcast | SCT016 BKN025 OVC041 | 18.7 | 15.3 | 81% | 76.02 | 0.0 | |||||||
| 06 | 16:35 | W 24 | 16.09 | Overcast | BKN016 OVC024 | 17.9 | 15.2 | 84% | 76 | 0.0 | |||||||
| 06 | 16:15 | W 19 G 26 | 16.09 | Overcast | BKN018 OVC025 | 17.6 | 15.1 | 85% | 76.02 | 0.0 | |||||||
| 06 | 15:55 | W 20 G 39 | 16.09 | Overcast | BKN018 BKN025 OVC032 | 18.1 | 14.9 | 82% | 76.05 | 0.0 | |||||||
| 06 | 15:35 | SW 15 G 31 | 16.09 | Overcast | BKN016 OVC023 | 17.7 | 15 | 84% | 76.05 | 0.0 | |||||||
| 06 | 15:15 | W 19 G 31 | 16.09 | Overcast | OVC016 | 17.1 | 15 | 88% | 76.05 | 0.0 | |||||||
| 06 | 14:55 | W 20 G 31 | 16.09 | Overcast | OVC016 | 16.7 | 14.8 | 89% | 76.05 | 0.0 | |||||||
| 06 | 14:35 | W 24 G 33 | 16.09 | Overcast | OVC014 | 16.5 | 14.6 | 89% | 76.02 | 0.0 | |||||||
| 06 | 14:15 | W 22 | 16.09 | Overcast | BKN012 OVC018 | 16.5 | 15.1 | 92% | 76.02 | 0.0 | |||||||
| 06 | 13:55 | W 20 G 31 | 16.09 | Overcast | BKN010 BKN015 OVC025 | 16.6 | 15.2 | 16.7 | 12.3 | 92% | 76.05 | 0.0 | 0.46 | ||||
| 06 | 13:35 | SW 15 | 16.09 | Overcast | SCT012 BKN019 OVC026 | 15.8 | 14.5 | 92% | 76.05 | 0.0 | |||||||
| 06 | 13:15 | W 15 G 28 | 16.09 | Light Rain | SCT009 BKN014 OVC019 | 15.1 | 13.9 | 93% | 76.07 | 0.0 | |||||||
| 06 | 12:55 | W 13 | 16.09 | Light Drizzle | SCT010 OVC017 | 14.6 | 13.3 | 92% | 76.12 | 0.0 | 0.08 | ||||||
| 06 | 12:35 | SW 7 | 11.27 | Light Rain | SCT007 OVC013 | 14 | 12.6 | 91% | 76.17 | 0.0 | 0.08 | ||||||
| 06 | 12:15 | SW 9 | 11.27 | Light Rain | SCT004 BKN008 OVC019 | 14.2 | 12.9 | 92% | 76.2 | 0.0 | 0.03 | ||||||
| 06 | 11:55 | SW 9 | 16.09 | Rain | OVC023 | 14.1 | 12.8 | 92% | 76.17 | 0.0 | 0.03 | ||||||
| 06 | 11:35 | W 9 | 16.09 | Light Rain | OVC023 | 14.4 | 13 | 91% | 76.15 | 0.0 | |||||||
| 06 | 11:15 | SW 7 | 16.09 | Light Drizzle | OVC025 | 14.2 | 12.9 | 92% | 76.12 | 0.0 | |||||||
| 06 | 10:55 | SW 6 | 16.09 | Light Rain | OVC027 | 13.8 | 12.5 | 92% | 76.1 | 0.0 | 0.36 | ||||||
| 06 | 10:35 | S 6 | 16.09 | Overcast | OVC029 | 14.1 | 12.7 | 91% | 76.1 | 0.0 | |||||||
| 06 | 10:15 | W 7 | 16.09 | Overcast | SCT005 SCT018 OVC029 | 13.8 | 12.5 | 92% | 76.1 | 0.0 | |||||||
| 06 | 09:35 | SW 6 | 8.05 | Light Rain | SCT025 BKN037 OVC060 | 12.9 | 11.5 | 91% | 76.1 | 0.0 | 0.1 | ||||||
| 06 | 09:15 | Calm | 4.02 | Rain | SCT031 BKN050 OVC085 | 12.5 | 11.2 | 92% | 76.1 | 0.0 | 0.08 | ||||||
| 06 | 08:55 | W 7 | 8.05 | Rain | SCT022 BKN039 OVC060 | 12.5 | 11.2 | 92% | 76.12 | 0.0 | 0.2 | ||||||
| 06 | 08:35 | W 6 | 16.09 | Rain | SCT027 BKN065 OVC080 | 12.4 | 11.1 | 92% | 76.07 | 0.0 | 0.15 | ||||||
| 06 | 08:15 | SW 6 | 8.05 | Rain | SCT021 BKN060 OVC100 | 12.5 | 11.1 | 91% | 76.05 | 0.0 | 0.1 | ||||||
| 06 | 07:55 | W 9 | 11.27 | Rain | SCT050 OVC090 | 12.5 | 11.2 | 17.2 | 12.5 | 92% | 76.05 | 0.0 | 0.1 | 0.1 | |||
| 06 | 07:35 | SW 7 | 16.09 | Light Rain | SCT038 SCT048 OVC090 | 12.8 | 10.8 | 88% | 76.05 | 0.0 | 0.05 | ||||||
| 06 | 07:15 | SW 7 | 11.27 | Rain | BKN040 BKN048 OVC090 | 14 | 9.6 | 75% | 76.02 | 0.0 | |||||||
| 06 | 06:55 | Calm | 16.09 | Light Rain | OVC040 | 14.6 | 8.8 | 68% | 75.97 | 0.0 | |||||||
| 06 | 06:35 | Calm | 16.09 | Overcast | OVC044 | 14.1 | 8.9 | 71% | 75.95 | 0.0 | |||||||
| 06 | 06:15 | Calm | 16.09 | Overcast | BKN048 OVC060 | 15 | 7.9 | 63% | 75.92 | 0.0 | |||||||
| 06 | 05:55 | Calm | 16.09 | Overcast | SCT046 BKN050 OVC090 | 15.2 | 7.5 | 60% | 75.92 | 0.0 | |||||||
| 06 | 05:35 | Calm | 16.09 | Overcast | OVC046 | 15.8 | 6.8 | 55% | 75.92 | 0.0 | |||||||
| 06 | 05:15 | Calm | 16.09 | Overcast | OVC046 | 15.7 | 6.7 | 55% | 75.95 | 0.0 | |||||||
| 06 | 04:55 | Calm | 16.09 | Overcast | SCT050 BKN060 OVC110 | 15.5 | 7.3 | 58% | 75.95 | 0.0 | |||||||
| 06 | 04:35 | Calm | 16.09 | Overcast | BKN050 OVC110 | 16.5 | 6.1 | 50% | 75.95 | 0.0 | |||||||
| 06 | 04:15 | Calm | 16.09 | Overcast | OVC050 | 16.5 | 6.1 | 50% | 75.97 | 0.0 | |||||||
| 06 | 03:55 | Calm | 16.09 | Mostly Cloudy | BKN050 BKN060 BKN070 | 17.2 | 5.7 | 47% | 75.95 | 0.0 | |||||||
| 06 | 03:35 | S 7 | 16.09 | Overcast | BKN050 BKN070 OVC110 | 16.6 | 5.5 | 48% | 75.95 | 0.0 | |||||||
| 06 | 03:15 | Calm | 16.09 | Mostly Cloudy | SCT075 SCT085 BKN110 | 15.5 | 5.7 | 52% | 75.97 | 0.0 | |||||||
| 06 | 02:55 | Calm | 16.09 | Mostly Cloudy | SCT060 SCT085 BKN110 | 16.9 | 5.2 | 46% | 75.97 | 0.0 | |||||||
| 06 | 02:35 | Calm | 16.09 | Mostly Cloudy | SCT060 SCT070 BKN100 | 16.8 | 5.1 | 46% | 75.97 | 0.0 | |||||||
| 06 | 01:55 | Calm | 16.09 | Overcast | OVC060 | 15.1 | 5.5 | 18.8 | 14.7 | 53% | 76.02 | 0.0 | |||||
| 06 | 01:35 | Calm | 16.09 | Partly Cloudy | SCT060 | 15.4 | 5.1 | 51% | 76.05 | 0.0 | |||||||
| 06 | 01:15 | Calm | 16.09 | Fair | CLR | 15.9 | 4.8 | 48% | 76.07 | 0.0 | |||||||
| 06 | 00:55 | Calm | 16.09 | Fair | CLR | 16 | 4.6 | 47% | 76.07 | 0.0 | |||||||
| 06 | 00:35 | Calm | 16.09 | Fair | CLR | 16.3 | 4.3 | 45% | 76.07 | 0.0 | |||||||
| 06 | 00:15 | W 6 | 16.09 | Fair | CLR | 16.3 | 4.2 | 45% | 76.1 | 0.0 | |||||||
| 05 | 23:55 | NW 6 | 16.09 | Fair | CLR | 16.3 | 4.2 | 45% | 76.07 | 0.0 | |||||||
| 05 | 23:35 | W 6 | 16.09 | Partly Cloudy | SCT085 | 16.5 | 4.1 | 44% | 76.1 | 0.0 | |||||||
| 05 | 23:15 | W 11 | 16.09 | Mostly Cloudy | BKN085 BKN110 | 16.7 | 3.9 | 43% | 76.1 | 0.0 | |||||||
| 05 | 22:55 | W 7 | 16.09 | Partly Cloudy | SCT110 | 16.7 | 3.9 | 43% | 76.1 | 0.0 | |||||||
| 05 | 22:35 | S 11 | 16.09 | Partly Cloudy | SCT120 | 17.5 | 3.5 | 40% | 76.1 | 0.0 | |||||||
| 05 | 22:15 | S 17 | 16.09 | Mostly Cloudy | BKN120 | 17.6 | 3.2 | 38% | 76.1 | 0.0 | |||||||
| 05 | 21:55 | S 15 G 26 | 16.09 | Partly Cloudy | SCT120 | 18 | 2.9 | 37% | 76.1 | 0.0 | |||||||
| 05 | 21:35 | S 13 | 16.09 | Fair | CLR | 17.8 | 2.5 | 36% | 76.1 | 0.0 | |||||||
| 05 | 21:15 | S 9 | 16.09 | Fair | CLR | 17.8 | 2 | 35% | 76.1 | 0.0 | |||||||
| 05 | 20:55 | S 15 G 28 | 16.09 | Partly Cloudy | SCT100 | 18.1 | 1.3 | 33% | 76.1 | 0.0 | |||||||
| 05 | 20:35 | S 15 G 30 | 16.09 | Mostly Cloudy | BKN110 | 18.3 | 1 | 31% | 76.1 | 0.0 | |||||||
| 05 | 20:15 | S 11 G 31 | 16.09 | Partly Cloudy | SCT110 | 18.7 | 1.5 | 32% | 76.1 | 0.0 | |||||||
| 05 | 19:55 | S 11 G 30 | 16.09 | Partly Cloudy | SCT110 | 18.9 | 1.7 | 22.5 | 18.9 | 32% | 76.07 | 0.0 | |||||
| 05 | 19:35 | S 15 | 16.09 | Fair | CLR | 19.1 | 1.4 | 31% | 76.07 | 0.0 | |||||||
| 05 | 19:15 | S 17 G 28 | 16.09 | Fair | CLR | 19.5 | 1 | 29% | 76.1 | 0.0 | |||||||
| 05 | 18:55 | S 11 G 30 | 16.09 | Fair | CLR | 19.7 | 1.2 | 29% | 76.1 | 0.0 | |||||||
| 05 | 18:35 | S 19 G 30 | 16.09 | Partly Cloudy | SCT070 | 20.5 | 1.6 | 29% | 76.07 | 0.0 | |||||||
| 05 | 18:15 | SE 11 | 16.09 | Mostly Cloudy | BKN070 | 20.5 | 2.2 | 30% | 76.05 | 0.0 | |||||||
| 05 | 17:55 | S 15 | 16.09 | Overcast | OVC070 | 20.8 | 2.3 | 30% | 76.05 | 0.0 | |||||||
| 05 | 17:35 | S 11 | 16.09 | Mostly Cloudy | BKN070 BKN080 | 21.1 | 2.4 | 29% | 76.05 | 0.0 | |||||||
| 05 | 17:15 | S 6 | 16.09 | Mostly Cloudy | BKN070 BKN090 | 21.5 | 2.1 | 28% | 76.05 | 0.0 | |||||||
| Date | Time (edt) | Wind (kph) | Vis. (km) | Weather | Sky Cond. | Air | Dwpt | Max. | Min. | Relative Humidity | Wind Chill (°C) | Heat Index (°C) | altimeter (cm) | sea level (mb) | 1 hr | 3 hr | 6 hr |
| 6 hour | |||||||||||||||||
| Temperature (ºC) | Pressure | Precipitation (cm) | |||||||||||||||